639  
ASGM40 PGUM 221012  
RWRGUM  
WEATHER ROUNDUP FOR THE MARIANAS  
NATIONAL WEATHER SERVICE TIYAN GU  
800 PM CHST THU FEB 22 2018  
 
GUZ001>004-221100-  
MARIANA ISLANDS-  
 
CITY SKY/WX TMP DP RH WIND PRES REMARKS
 
GUAM AIRPORT MOCLDY 81 77 89 NE15 29.85R  
ANDERSEN AFB MOCLDY 79 75 89 NE17G26 29.86R  
ROTA AIRPORT MOCLDY 79 73 83 E16 29.85F  
TINIAN AP MOCLDY 79 77 94 NE15 29.86  
SAIPAN AP PTCLDY 81 77 89 E22 29.87S  
 

 
 
 
 
CLICK HERE TO GO TO PREVIOUS BULLETINS.

The Nexlab GU Page Main Text Page